Precipitable_Water
1.46 1.64 1.61 1.68 1.75 1.74 1.71 1.72 1.68 1.62 1.51 1.45 1.45 1.44 1.36 1.22 1.12 1.13 1.15 1.18 0.99 0.99 1.06 1.08 1.01 1.07 1.23 1.45 1.40 1.35 1.14 1.13 1.17 0.88 0.98 1.14 1.34 1.42 1.46 1.16 1.08 1.14 1.10
1.50 1.62 1.60 1.67 1.72 1.74 1.71 1.75 1.75 1.69 1.56 1.48 1.48 1.43 1.34 1.21 1.21 1.20 1.23 1.19 1.10 1.11 1.26 1.39 1.05 1.00 1.22 1.31 1.34 1.20 0.94 1.03 1.04 0.86 0.89 1.00 1.06 1.07 1.10 1.25 1.48 1.44 1.22
1.32 1.51 1.59 1.66 1.67 1.71 1.74 1.73 1.79 1.75 1.65 1.59 1.57 1.50 1.34 1.21 1.22 1.28 1.37 1.29 1.23 1.29 1.41 1.37 1.13 1.02 1.06 1.12 1.16 0.99 1.00 1.20 1.31 1.38 1.12 1.09 1.16 1.26 1.46 1.58 1.57 1.38 1.05
1.43 1.50 1.59 1.66 1.72 1.65 1.69 1.66 1.70 1.73 1.68 1.67 1.66 1.72 1.39 1.25 1.23 1.31 1.42 1.44 1.33 1.33 1.31 1.13 0.99 0.97 0.98 0.93 0.98 0.98 1.18 1.31 1.38 1.44 1.44 1.39 1.43 1.50 1.39 1.23 1.10 0.94 0.91
1.36 1.48 1.59 1.67 1.74 1.65 1.66 1.61 1.64 1.66 1.61 1.68 1.66 1.68 1.49 1.34 1.22 1.31 1.52 1.62 1.42 1.41 1.29 1.08 0.93 0.88 0.91 0.86 0.89 1.05 1.17 1.20 1.26 1.34 1.39 1.26 1.19 1.06 0.95 0.95 0.94 0.90 0.89
1.28 1.49 1.62 1.71 1.76 1.72 1.68 1.65 1.61 1.66 1.62 1.62 1.61 1.54 1.54 1.41 1.30 1.26 1.61 1.70 1.58 1.42 1.30 1.16 0.99 0.86 0.88 0.89 0.84 1.01 1.08 1.10 1.07 1.11 1.09 1.03 0.88 0.91 0.92 0.86 0.89 0.91 0.91
1.08 1.30 1.56 1.70 1.77 1.79 1.73 1.68 1.65 1.63 1.69 1.62 1.60 1.51 1.52 1.46 1.34 1.21 1.51 1.71 1.72 1.45 1.27 1.15 1.04 0.88 0.91 0.89 0.87 0.89 0.97 0.96 0.98 1.01 1.04 1.01 0.92 0.88 0.90 0.92 0.93 0.92 0.92
0.95 1.15 1.30 1.66 1.70 1.76 1.78 1.71 1.67 1.65 1.70 1.66 1.66 1.59 1.51 1.45 1.39 1.26 1.44 1.68 1.75 1.59 1.25 1.10 1.01 0.87 0.89 0.86 0.82 0.81 0.85 0.88 0.90 0.95 0.95 0.95 0.86 0.92 0.94 0.95 0.94 0.94 0.93
0.78 1.02 1.19 1.37 1.68 1.70 1.76 1.77 1.70 1.71 1.69 1.69 1.66 1.66 1.56 1.46 1.43 1.34 1.48 1.63 1.73 1.70 1.41 1.11 1.02 0.92 0.90 0.91 0.89 0.78 0.73 0.83 0.85 0.91 0.94 0.97 0.91 0.96 0.96 0.96 0.96 0.95 0.93
0.58 0.79 0.93 1.21 1.40 1.59 1.66 1.73 1.72 1.69 1.67 1.65 1.62 1.60 1.56 1.55 1.48 1.51 1.55 1.59 1.67 1.74 1.62 1.25 1.05 1.04 0.97 0.96 0.95 0.87 0.74 0.83 0.89 0.90 0.94 0.97 0.97 0.94 0.96 0.96 0.96 0.94 0.92
0.45 0.51 0.75 0.92 1.24 1.37 1.53 1.70 1.72 1.68 1.65 1.59 1.63 1.62 1.58 1.57 1.56 1.55 1.59 1.61 1.62 1.68 1.72 1.47 1.17 1.13 1.10 1.04 0.99 0.90 0.79 0.88 0.91 0.91 0.96 0.99 1.00 0.95 0.95 0.94 0.93 0.92 0.90
0.36 0.40 0.49 0.68 0.90 1.19 1.37 1.52 1.65 1.67 1.67 1.65 1.64 1.62 1.59 1.58 1.52 1.57 1.58 1.63 1.71 1.70 1.73 1.60 1.26 1.21 1.18 1.14 1.07 1.02 0.90 0.89 0.91 0.92 0.96 0.99 0.98 0.93 0.92 0.90 0.89 0.90 0.89
0.33 0.37 0.40 0.46 0.59 0.88 1.14 1.35 1.54 1.63 1.62 1.59 1.60 1.62 1.62 1.57 1.51 1.52 1.53 1.53 1.58 1.73 1.74 1.71 1.45 1.26 1.14 1.12 1.11 1.06 1.02 1.04 1.07 1.02 1.02 1.00 0.98 0.93 0.94 0.92 0.89 0.89 0.89
0.27 0.31 0.35 0.38 0.40 0.50 0.74 1.04 1.30 1.54 1.61 1.57 1.50 1.51 1.48 1.50 1.52 1.46 1.52 1.57 1.53 1.53 1.61 1.69 1.61 1.45 1.25 1.15 1.11 1.14 1.08 1.02 1.12 1.12 1.11 1.10 1.07 1.01 0.98 0.98 0.95 0.91 0.91
0.29 0.31 0.33 0.37 0.38 0.41 0.44 0.58 0.88 1.22 1.49 1.59 1.59 1.53 1.49 1.45 1.49 1.53 1.56 1.64 1.63 1.63 1.56 1.56 1.58 1.55 1.38 1.19 1.14 1.16 1.16 1.06 1.09 1.09 1.08 1.10 1.10 1.06 1.04 1.06 1.07 1.05 1.02
0.36 0.36 0.38 0.38 0.40 0.41 0.41 0.42 0.48 0.71 1.18 1.51 1.62 1.62 1.56 1.55 1.53 1.56 1.56 1.61 1.64 1.64 1.58 1.57 1.53 1.53 1.44 1.30 1.13 1.18 1.15 1.14 1.10 1.07 1.07 1.09 1.10 1.08 1.08 1.05 1.08 1.11 1.14
0.50 0.49 0.45 0.44 0.44 0.42 0.41 0.41 0.41 0.42 0.62 1.11 1.47 1.67 1.60 1.58 1.55 1.56 1.54 1.58 1.63 1.66 1.65 1.57 1.54 1.55 1.48 1.42 1.24 1.15 1.15 1.14 1.11 1.10 1.10 1.11 1.11 1.08 1.07 1.08 1.07 1.12 1.17
0.57 0.56 0.56 0.54 0.51 0.48 0.45 0.43 0.41 0.40 0.40 0.58 1.02 1.38 1.60 1.62 1.57 1.54 1.50 1.54 1.61 1.62 1.61 1.61 1.54 1.48 1.43 1.38 1.32 1.23 1.17 1.18 1.12 1.10 1.08 1.10 1.10 1.10 1.07 1.12 1.13 1.18 1.20
0.58 0.57 0.58 0.60 0.57 0.54 0.52 0.49 0.46 0.42 0.40 0.42 0.58 0.93 1.30 1.54 1.59 1.51 1.52 1.56 1.59 1.55 1.56 1.56 1.52 1.50 1.40 1.39 1.38 1.33 1.36 1.25 1.18 1.16 1.10 1.07 1.10 1.10 1.11 1.17 1.18 1.22 1.17
0.57 0.58 0.58 0.60 0.62 0.62 0.58 0.55 0.52 0.48 0.44 0.42 0.49 0.61 0.85 1.26 1.51 1.56 1.58 1.61 1.64 1.63 1.60 1.59 1.53 1.59 1.53 1.48 1.44 1.41 1.43 1.44 1.40 1.27 1.18 1.12 1.12 1.12 1.16 1.19 1.19 1.23 1.20
0.55 0.55 0.55 0.55 0.59 0.64 0.60 0.54 0.50 0.45 0.45 0.44 0.47 0.57 0.71 0.86 1.22 1.41 1.54 1.63 1.67 1.64 1.64 1.65 1.61 1.56 1.55 1.57 1.46 1.42 1.46 1.48 1.40 1.37 1.33 1.25 1.14 1.15 1.17 1.21 1.26 1.21 1.19
0.58 0.60 0.61 0.61 0.59 0.65 0.67 0.62 0.57 0.53 0.50 0.50 0.50 0.54 0.62 0.71 0.91 1.21 1.38 1.51 1.63 1.62 1.63 1.58 1.56 1.47 1.53 1.58 1.43 1.45 1.29 1.36 1.40 1.40 1.41 1.38 1.33 1.27 1.19 1.18 1.20 1.16 1.13
0.60 0.65 0.69 0.71 0.68 0.68 0.76 0.72 0.65 0.61 0.56 0.53 0.55 0.58 0.67 0.72 0.74 0.97 1.26 1.36 1.52 1.53 1.54 1.58 1.52 1.45 1.36 1.49 1.58 1.39 1.23 1.14 1.29 1.45 1.40 1.36 1.38 1.31 1.23 1.17 1.12 1.12 1.13
0.67 0.74 0.78 0.81 0.78 0.79 0.86 0.81 0.71 0.63 0.54 0.54 0.55 0.62 0.68 0.71 0.69 0.77 0.98 1.20 1.41 1.46 1.49 1.55 1.58 1.48 1.43 1.41 1.44 1.50 1.47 1.41 1.22 1.12 1.27 1.28 1.29 1.25 1.22 1.17 1.12 1.10 1.09
0.73 0.77 0.82 0.82 0.81 0.81 0.88 0.93 0.81 0.72 0.70 0.68 0.64 0.65 0.70 0.72 0.72 0.70 0.78 0.97 1.25 1.42 1.47 1.52 1.53 1.49 1.46 1.42 1.34 1.36 1.30 1.39 1.43 1.29 1.11 1.19 1.29 1.25 1.22 1.19 1.17 1.12 1.09
0.75 0.78 0.83 0.84 0.85 0.87 0.94 0.97 0.89 0.80 0.76 0.73 0.69 0.66 0.72 0.72 0.75 0.77 0.80 0.86 1.11 1.21 1.40 1.49 1.54 1.57 1.49 1.51 1.42 1.33 1.20 1.20 1.29 1.26 1.18 1.18 1.14 1.14 1.18 1.17 1.12 1.11 1.09
Wind_Speed
6 8 8 11 12 11 10 9 8 7 6 4 4 3 2 1 1 1 2 2 3 3 3 4 5 5 5 6 6 6 6 6 6 7 8 8 8 8 8 8 8 8 9
8 9 9 10 12 13 12 11 10 9 8 7 5 4 4 3 2 2 2 2 3 3 3 4 4 4 5 5 5 5 6 7 7 7 7 7 6 6 6 6 7 7 7
10 10 10 11 11 12 13 13 13 12 10 9 8 7 6 5 5 4 3 2 2 3 3 4 3 3 4 4 4 5 6 6 6 6 6 6 6 6 6 7 6 5 5
9 10 10 11 12 12 12 12 13 13 13 12 11 10 8 8 7 6 5 4 3 3 3 3 3 4 4 3 5 5 6 5 5 5 5 5 5 4 3 2 2 2 3
8 9 12 13 13 13 13 12 12 13 13 13 13 13 11 10 10 9 8 7 6 4 4 3 3 4 5 4 5 6 5 4 3 5 5 4 3 2 1 1 1 1 2
10 10 12 14 14 14 15 14 13 13 13 13 13 14 13 13 12 12 11 10 8 7 6 5 4 5 5 6 6 7 6 4 4 4 5 4 3 3 2 2 1 2 2
12 11 12 15 16 17 17 16 16 15 14 13 13 13 14 14 14 15 14 13 11 10 9 8 7 6 6 6 7 8 7 6 5 6 6 5 5 4 4 3 3 4 4
14 14 13 15 17 18 19 18 18 17 16 16 15 14 14 14 15 16 16 16 15 13 11 10 9 9 8 8 8 9 9 8 7 8 7 7 7 6 6 6 5 6 6
16 16 16 16 18 19 21 21 20 19 19 18 17 16 15 15 15 16 17 17 18 16 14 13 12 11 11 10 10 10 10 10 9 9 9 9 9 8 8 8 8 8 8
19 19 19 19 18 20 22 23 23 23 22 21 20 19 17 17 16 16 16 17 18 18 17 16 15 14 13 13 12 12 12 12 11 11 11 11 10 11 10 10 10 10 10
23 23 22 22 22 22 22 25 26 26 25 24 23 22 20 20 19 18 18 18 18 18 17 17 18 17 16 15 15 14 14 13 12 12 13 12 12 12 12 12 12 12 12
25 25 26 25 25 26 25 25 26 27 28 27 26 25 24 22 22 21 20 20 20 19 19 18 18 18 18 18 18 17 16 15 15 15 14 14 14 14 14 14 14 14 14
24 25 27 28 28 28 29 29 28 29 29 30 29 29 27 26 25 24 23 22 22 22 21 20 19 19 19 18 18 19 19 18 17 16 16 16 15 16 16 16 16 16 16
23 24 26 28 30 32 32 32 32 32 32 31 32 32 31 30 29 27 26 25 24 24 24 23 22 21 21 21 20 19 20 20 20 19 19 18 18 18 18 18 18 18 18
25 25 26 27 29 30 32 34 35 35 35 34 34 34 34 33 32 31 30 29 28 26 26 26 25 25 24 23 23 22 21 20 20 19 19 19 18 17 17 17 17 17 17
28 28 28 28 29 30 32 33 35 36 37 38 36 36 37 36 36 35 33 32 31 30 29 29 28 27 26 26 25 25 24 23 23 22 21 21 20 20 19 19 19 19 19
28 30 31 32 32 33 34 35 36 37 38 38 40 39 39 39 38 37 36 35 34 33 32 31 30 30 29 28 28 27 27 27 26 25 24 24 23 22 22 21 21 21 21
32 33 34 35 36 37 37 38 38 38 40 41 40 41 40 41 40 40 39 38 37 36 35 34 32 32 32 31 30 30 30 30 29 28 27 26 25 24 24 23 22 23 22
36 38 38 39 39 40 40 40 41 41 41 42 44 43 43 42 42 42 42 41 40 39 38 36 35 34 33 33 32 32 31 31 31 31 30 29 29 28 26 26 25 24 25
40 41 42 42 42 42 43 43 43 44 44 44 44 45 45 45 45 43 43 42 42 41 39 38 36 36 34 34 33 33 32 32 32 32 32 32 31 30 29 28 27 27 28
39 41 43 45 45 44 44 45 46 46 45 46 46 47 47 47 47 47 46 44 43 42 41 40 38 37 36 35 33 33 34 35 35 34 33 33 33 32 32 31 31 30 30
40 42 44 47 48 48 47 46 47 46 47 47 47 48 49 49 48 48 47 47 47 45 44 43 41 39 38 36 34 32 32 34 35 36 36 36 36 35 34 33 33 33 34
39 41 44 47 48 49 48 48 48 48 47 46 47 48 48 48 49 49 48 48 47 46 46 44 44 43 41 41 38 34 31 32 31 32 35 34 34 34 34 35 35 35 36
36 37 37 37 39 42 44 44 44 46 47 47 46 47 48 48 49 51 51 49 48 46 47 45 43 43 44 41 39 40 38 35 31 32 31 32 33 33 34 34 35 37 38
29 30 31 33 32 31 35 37 38 39 41 42 45 46 46 47 49 49 52 52 50 47 47 46 44 45 44 45 42 39 39 38 38 33 33 32 33 34 36 37 38 39 41
28 28 30 28 25 24 26 28 32 34 36 38 40 42 44 45 46 48 50 51 51 49 47 45 46 45 45 41 40 42 40 37 36 35 35 36 37 38 40 41 41 43 43
Wind_Direction
271 248 237 227 224 221 219 216 213 210 209 208 207 200 194 174 146 129 132 136 134 127 123 117 115 119 120 124 133 131 128 126 118 119 120 117 107 98 102 88 85 83 76
268 247 241 229 225 224 224 223 222 221 222 223 222 222 224 219 204 179 151 153 154 146 144 141 123 133 131 132 135 135 135 135 127 123 126 125 115 105 103 96 93 83 73
268 252 240 229 225 224 226 227 227 228 229 231 231 231 234 232 225 216 199 178 170 170 175 165 161 158 158 151 159 147 143 141 138 132 130 131 122 113 104 103 95 74 56
273 246 237 230 228 226 226 228 230 233 235 236 236 234 240 238 232 226 219 211 200 196 181 191 194 187 181 176 171 165 156 150 149 148 141 141 132 123 117 106 82 53 44
268 260 239 232 231 230 230 232 233 234 236 238 239 239 243 242 237 232 227 223 221 220 207 209 210 205 200 192 182 177 175 175 178 197 181 171 182 179 166 140 51 24 18
266 265 246 235 236 235 235 237 237 237 238 238 241 243 244 243 241 237 233 229 231 226 226 227 224 215 210 206 201 198 199 200 201 190 190 208 212 217 227 246 282 315 327
263 262 256 242 240 239 239 238 239 240 240 241 244 247 246 244 243 240 237 234 233 234 234 235 233 227 222 219 218 217 220 224 225 221 222 230 233 236 245 259 275 290 301
263 261 260 249 245 242 240 240 241 242 243 244 246 250 248 247 245 242 239 237 235 237 238 239 237 234 232 231 230 229 230 234 238 232 234 241 241 245 253 262 272 280 288
263 261 259 258 250 246 242 242 243 243 245 246 248 249 249 249 246 243 241 240 237 238 241 241 240 239 239 238 238 238 237 238 243 243 245 248 246 251 257 264 270 276 281
264 262 260 257 255 251 247 245 245 245 247 247 248 248 249 249 247 245 244 242 239 239 242 243 243 243 244 242 241 242 242 243 248 248 248 250 254 257 261 265 270 274 277
263 263 261 259 255 254 253 248 247 247 247 247 248 248 248 248 248 246 244 242 240 239 242 244 243 244 244 244 244 246 245 244 248 252 250 253 258 260 263 266 269 273 275
265 263 261 259 257 255 253 253 249 249 248 247 247 247 247 247 247 247 245 243 243 241 242 244 244 245 245 246 247 247 248 247 251 254 253 255 260 261 264 266 269 271 274
266 265 262 260 258 257 254 253 253 250 249 249 248 247 247 247 247 246 245 245 244 242 243 245 246 246 246 248 248 248 249 249 252 255 254 257 261 263 265 267 270 272 274
270 268 266 263 260 258 256 255 253 252 251 251 250 248 247 247 246 245 246 246 245 244 244 245 247 247 248 249 249 250 251 251 254 255 256 258 261 264 266 268 270 272 274
272 271 269 267 264 261 258 256 255 253 252 252 251 248 247 246 246 245 246 246 245 246 246 246 247 248 250 250 250 251 252 251 253 254 255 256 260 263 266 267 269 271 273
274 273 271 269 267 263 261 259 256 254 253 251 251 249 247 246 246 246 247 245 246 247 247 247 248 248 250 251 250 251 251 253 253 255 255 257 258 262 266 267 268 270 271
278 276 273 271 268 265 263 261 259 256 254 253 250 250 249 247 246 246 246 245 246 247 247 247 248 248 250 252 252 251 252 253 254 254 256 258 259 261 264 267 268 270 272
280 279 277 273 270 267 264 262 260 258 255 253 252 250 249 248 247 246 246 246 246 246 247 248 248 249 250 252 253 253 253 253 253 254 255 257 258 262 264 264 267 270 272
281 280 278 275 272 269 266 263 260 258 257 254 252 251 249 248 247 247 247 247 247 247 247 248 249 249 249 250 252 252 253 252 252 255 256 257 258 260 263 264 265 269 271
282 280 278 275 273 270 267 263 261 259 257 255 253 251 250 248 248 247 247 247 247 245 246 246 248 248 250 250 250 252 253 252 255 255 257 257 258 259 260 262 265 268 271
285 283 280 276 273 271 267 263 261 258 257 255 253 251 250 249 248 247 247 247 247 245 244 246 247 247 249 250 252 253 254 255 256 255 256 258 258 258 259 262 264 267 271
288 286 283 279 273 269 267 263 260 258 257 255 254 252 250 249 248 247 247 247 247 246 246 246 246 248 248 248 250 253 255 257 256 255 256 257 259 259 259 262 265 267 271
294 292 289 282 275 269 266 262 259 257 256 255 254 252 250 249 248 247 246 247 247 246 246 246 246 246 249 247 247 251 256 254 257 256 257 258 258 257 260 263 265 268 272
301 300 296 291 280 269 265 261 257 256 254 254 254 253 251 249 249 247 246 245 246 246 245 246 246 246 245 247 249 249 254 257 256 257 255 257 258 260 262 265 268 271 274
310 309 307 299 288 274 266 260 256 255 255 255 254 253 251 250 249 248 245 244 244 245 245 245 246 247 247 248 247 248 252 252 252 253 259 260 261 264 266 268 270 273 276
317 316 316 310 299 278 270 265 258 256 256 257 256 254 251 251 250 248 245 243 242 243 244 246 246 248 249 242 244 248 251 251 251 256 259 261 265 267 269 272 273 274 275